This demonstration page uses our WeatherBlox Daily Observations layout. Learn more.

Left ArrowRight Arrow

34.02893, -84.19858

Hourly Observations for November 18, 2019

Temp ( °F °C ) Dew Point ( °F °C ) Humidity (%) Winds ( mph kmh ) Pressure ( in mb ) Visibility ( mi km ) Precip ( " mm )
12:53 am 00:53 Mostly Cloudy 53 11.7 51 10.6 93 93 SSW 3 6 29.87 1011 10 16 0.00 0.00
1:02 am 01:02 Cloudy 53 11.7 51 10.6 93 93 SSW 3 6 29.87 1012 10 16 0.00 0.00
1:49 am 01:49 Cloudy 54 12 52 11 94 94 Calm 29.86 1011 10 16 0.00 0.00
1:53 am 01:53 Cloudy 54 12.2 51 10.6 90 90 SSE 3 6 29.85 1011 10 16 0.00 0.00
2:06 am 02:06 Cloudy 54 12.2 51 10.6 90 90 Calm 29.85 1011 10 16 0.00 0.00
2:25 am 02:25 Cloudy 54 12.2 51 10.6 90 90 S 3 6 29.85 1011 10 16 0.00 0.00
2:34 am 02:34 Cloudy 54 12.2 51 10.6 90 90 S 3 6 29.85 1011 10 16 0.00 0.00
2:53 am 02:53 Cloudy 54 12.2 52 11.1 93 93 Calm 29.84 1010 10 16 0.00 0.00
3:02 am 03:02 Cloudy 53 11.7 52 11.1 96 96 S 3 6 29.85 1011 10 16 0.00 0.00
3:33 am 03:33 Cloudy 53 11.7 52 11.1 96 96 Calm 29.84 1011 10 16 0.00 0.00
3:53 am 03:53 Cloudy 53 11.7 52 11.1 96 96 WSW 3 6 29.83 1010 10 16 0.00 0.00
4:07 am 04:07 Cloudy 53 11.7 52 11.1 96 96 SW 5 7 29.84 1011 10 16 0.00 0.00
4:53 am 04:53 Cloudy 53 11.7 51 10.6 93 93 SW 7 11 29.83 1010 10 16 0.00 0.00
5:28 am 05:28 Mostly Cloudy 51 10.6 50 10 96 96 SW 3 6 29.84 1010 10 16 0.00 0.00
5:53 am 05:53 Mostly Cloudy 50 10 48 8.9 93 93 Calm 29.83 1010 8 13 0.00 0.00
6:38 am 06:38 Partly Cloudy 48 8.9 47 8.3 96 96 WSW 5 7 29.86 1011 7 11 0.00 0.00
6:53 am 06:53 Mostly Cloudy 48 8.9 48 8.9 100 100 SW 3 6 29.84 1011 7 11 0.00 0.00
7:37 am 07:37 Partly Cloudy with Mist and Fog 47 8.3 47 8.3 100 100 Calm 29.87 1011 2 3 0.00 0.00
7:46 am 07:46 Partly Cloudy with Mist and Fog 47 8.3 47 8.3 100 100 Calm 29.87 1011 2 2 0.00 0.00
7:53 am 07:53 Partly Cloudy with Mist and Fog 48 8.9 48 8.9 100 100 Calm 29.85 1011 2 2 0.00 0.00
8:00 am 08:00 Mostly Sunny 47 8.3 47 8.3 100 100 Calm 29.87 1011 4 6 0.00 0.00
8:53 am 08:53 Mostly Sunny 51 10.6 44 6.7 77 77 W 7 11 29.85 1011 10 16 0.00 0.00
9:53 am 09:53 Mostly Cloudy 53 11.7 41 5 64 64 W 6 9 29.85 1011 10 16 0.00 0.00
10:53 am 10:53 Sunny 56 13.3 35 1.7 46 46 VRB 5 7 29.83 1010 10 16 0.00 0.00
11:53 am 11:53 Sunny 58 14.4 34 1.1 41 41 W 8 13 29.81 1010 10 16 0.00 0.00
12:53 pm 12:53 Sunny 59 15 32 0 36 36 SW 5 7 29.78 1009 10 16 0.00 0.00
1:53 pm 13:53 Sunny 61 16.1 32 0 34 34 W 8 13 29.75 1007 10 16 0.00 0.00
2:53 pm 14:53 Sunny 61 16.1 31 -0.6 32 32 WNW 5 7 29.74 1007 10 16 0.00 0.00
3:53 pm 15:53 Sunny 60 15.6 32 0 35 35 WSW 8 13 29.74 1007 10 16 0.00 0.00
4:53 pm 16:53 Sunny 58 14.4 34 1.1 41 41 W 8 13 29.75 1007 10 16 0.00 0.00
5:53 pm 17:53 Clear 55 12.8 35 1.7 47 47 WNW 8 13 29.77 1008 10 16 0.00 0.00
6:53 pm 18:53 Clear 52 11.1 37 2.8 57 57 WNW 7 11 29.80 1009 10 16 0.00 0.00
7:53 pm 19:53 Clear 50 10 37 2.8 61 61 W 5 7 29.81 1010 10 16 0.00 0.00
8:53 pm 20:53 Clear 49 9.4 37 2.8 64 64 W 6 9 29.80 1009 10 16 0.00 0.00
9:53 pm 21:53 Clear 48 8.9 37 2.8 66 66 W 5 7 29.81 1009 10 16 0.00 0.00
10:53 pm 22:53 Clear 46 7.8 37 2.8 71 71 W 5 7 29.82 1010 10 16 0.00 0.00
11:53 pm 23:53 Clear 45 7.2 37 2.8 74 74 WNW 6 9 29.82 1010 10 16 0.00 0.00

Powered by AerisWeather